Weather History for Culpeper, VA

Change the Weather History Date:

Saturday, September 1, 2012

  Actual Average (KOMH) Record (KOMH)
Temperature  
Mean Temperature 80 °F -  
Max Temperature 91 °F 84 °F 103 °F (1953)
Min Temperature 68 °F 61 °F 50 °F (1976)
Cooling Degree Days 14    
Growing Degree Days 30 (Base 50)    
Moisture  
Dew Point 71 °F    
Average Humidity 78    
Maximum Humidity 100    
Minimum Humidity 49    
Precipitation  
Precipitation 0.00 in - - ()
Sea Level Pressure  
Sea Level Pressure 30.06 in    
Wind  
Wind Speed 1 mph (West)    
Max Wind Speed 7 mph    
Max Gust Speed -    
Visibility 9 miles    
Events Rain    
Averages and records for this station are not official NWS values.
T = Trace of Precipitation, MM = Missing Value Source: NWS Daily Summary

Daily Weather History Graph

Daily Weather History Graph

Search for Another Location

Airport:

Trip Planner

Search our weather history database for the weather conditions in past years. The results will help you decide how hot, cold, wet, or windy it might be!

Date:

Astronomy

Sep. 01, 2012 Rise Set
Actual Time 6:41 AM EDT 7:40 PM EDT
Civil Twilight 6:13 AM EDT 8:07 PM EDT
Nautical Twilight 5:41 AM EDT 8:39 PM EDT
Astronomical Twilight 5:08 AM EDT 9:13 PM EDT
Moon 7:58 PM EDT (9/1) 7:45 AM EDT (9/1)
Length of Visible Light 13h 53m
Length of Day
12h 59m
Full, 99% of the Moon is Illuminated
Sep 1
Full
Sep 8
Last Quarter
Sep 15
New
Sep 22
First Quarter
Sep 29
Full

Hourly Weather History & Observations

Time (EDT) Temp. Heat Index Dew Point Humidity Pressure Visibility Wind Dir Wind Speed Gust Speed Precip Events Conditions
12:15 AM 71.6 °F - 71.6 °F 100% 30.06 in 5.0 mi Calm Calm - N/A   Clear
12:35 AM 71.6 °F - 71.6 °F 100% 30.07 in 7.0 mi Calm Calm - N/A   Clear
12:55 AM 69.8 °F - 69.8 °F 100% 30.07 in 5.0 mi Calm Calm - N/A   Clear
1:15 AM 71.6 °F - 71.6 °F 100% 30.06 in 7.0 mi Calm Calm - N/A   Clear
1:35 AM 71.6 °F - 69.8 °F 94% 30.06 in 7.0 mi Calm Calm - N/A   Clear
1:55 AM 69.8 °F - 69.8 °F 100% 30.06 in 7.0 mi Calm Calm - N/A   Clear
2:15 AM 68.0 °F - 68.0 °F 100% 30.05 in 5.0 mi Calm Calm - N/A   Clear
2:35 AM 69.8 °F - 69.8 °F 100% 30.05 in 5.0 mi Calm Calm - N/A   Clear
2:55 AM 69.8 °F - 69.8 °F 100% 30.05 in 5.0 mi Calm Calm - N/A   Clear
3:15 AM 68.0 °F - 68.0 °F 100% 30.05 in 5.0 mi Calm Calm - N/A   Clear
3:35 AM 68.0 °F - 68.0 °F 100% 30.05 in 4.0 mi Calm Calm - N/A   Clear
3:55 AM 68.0 °F - 68.0 °F 100% 30.05 in 7.0 mi Calm Calm - N/A   Clear
4:15 AM 69.8 °F - 69.8 °F 100% 30.06 in 5.0 mi Calm Calm - N/A   Clear
4:35 AM 69.8 °F - 69.8 °F 100% 30.06 in 7.0 mi Calm Calm - N/A   Clear
4:55 AM 69.8 °F - 69.8 °F 100% 30.06 in 7.0 mi Calm Calm - N/A   Clear
5:15 AM 69.8 °F - 69.8 °F 100% 30.05 in 7.0 mi Calm Calm - N/A   Clear
5:35 AM 69.8 °F - 69.8 °F 100% 30.06 in 5.0 mi Calm Calm - N/A   Clear
5:55 AM 69.8 °F - 69.8 °F 100% 30.06 in 5.0 mi Calm Calm - N/A   Clear
6:15 AM 69.8 °F - 69.8 °F 100% 30.06 in 5.0 mi Calm Calm - N/A   Clear
6:35 AM 69.8 °F - 69.8 °F 100% 30.07 in 7.0 mi Calm Calm - N/A   Clear
6:55 AM 69.8 °F - 69.8 °F 100% 30.08 in 7.0 mi Calm Calm - N/A   Clear
7:15 AM 69.8 °F - 69.8 °F 100% 30.10 in 7.0 mi Calm Calm - N/A   Clear
7:35 AM 71.6 °F - 71.6 °F 100% 30.10 in 10.0 mi NNW 3.5 mph - N/A   Scattered Clouds
7:55 AM 73.4 °F - 71.6 °F 94% 30.11 in 10.0 mi Calm Calm - N/A   Mostly Cloudy
8:15 AM 78.8 °F - 71.6 °F 78% 30.11 in 10.0 mi NW 4.6 mph - N/A   Scattered Clouds
8:35 AM 78.8 °F - 71.6 °F 78% 30.11 in 10.0 mi WNW 5.8 mph - N/A Rain Light Rain
9:15 AM 80.6 °F 84.6 °F 71.6 °F 74% 30.11 in 10.0 mi NNW 3.5 mph - N/A   Clear
9:35 AM 80.6 °F 85.4 °F 73.4 °F 79% 30.11 in 10.0 mi Calm Calm - N/A Rain Light Rain
9:55 AM 82.4 °F 87.2 °F 71.6 °F 70% 30.12 in 10.0 mi West 3.5 mph - N/A   Scattered Clouds
10:15 AM 82.4 °F 87.2 °F 71.6 °F 70% 30.12 in 10.0 mi West 3.5 mph - N/A Rain Light Rain
10:35 AM 82.4 °F 87.2 °F 71.6 °F 70% 30.11 in 10.0 mi West 4.6 mph - N/A   Clear
10:55 AM 82.4 °F 87.2 °F 71.6 °F 70% 30.11 in 10.0 mi Calm Calm - N/A   Clear
11:15 AM 82.4 °F 87.2 °F 71.6 °F 70% 30.10 in 10.0 mi SW 3.5 mph - N/A   Clear
11:35 AM 84.2 °F 89.6 °F 71.6 °F 66% 30.10 in 10.0 mi Calm Calm - N/A   Clear
11:55 AM 86.0 °F 90.4 °F 69.8 °F 58% 30.10 in 10.0 mi West 5.8 mph - N/A   Clear
12:15 PM 87.8 °F 92.6 °F 69.8 °F 55% 30.10 in 10.0 mi WNW 4.6 mph - N/A   Clear
12:35 PM 87.8 °F 92.6 °F 69.8 °F 55% 30.10 in 10.0 mi West 5.8 mph - N/A   Clear
12:55 PM 87.8 °F 92.6 °F 69.8 °F 55% 30.10 in 10.0 mi Calm Calm - N/A   Clear
1:15 PM 87.8 °F 92.6 °F 69.8 °F 55% 30.09 in 10.0 mi Calm Calm - N/A   Clear
1:35 PM 89.6 °F 96.2 °F 71.6 °F 55% 30.09 in 10.0 mi Calm Calm - N/A   Clear
1:55 PM 87.8 °F 92.6 °F 69.8 °F 55% 30.08 in 10.0 mi Calm Calm - N/A   Clear
2:15 PM 87.8 °F 92.6 °F 69.8 °F 55% 30.08 in 10.0 mi Calm Calm - N/A   Clear
2:35 PM 89.6 °F 94.7 °F 69.8 °F 52% 30.07 in 10.0 mi SW 4.6 mph - N/A   Clear
2:55 PM 89.6 °F 96.2 °F 71.6 °F 55% 30.06 in 10.0 mi WSW 6.9 mph - N/A   Clear
3:15 PM 89.6 °F 96.2 °F 71.6 °F 55% 30.05 in 10.0 mi WSW 5.8 mph - N/A   Clear
3:35 PM 89.6 °F 96.2 °F 71.6 °F 55% 30.05 in 10.0 mi WSW 5.8 mph - N/A   Clear
3:55 PM 89.6 °F 94.7 °F 69.8 °F 52% 30.04 in 10.0 mi Calm Calm - N/A   Clear
4:15 PM 89.6 °F 96.2 °F 71.6 °F 55% 30.03 in 10.0 mi WNW 6.9 mph - N/A   Clear
4:35 PM 89.6 °F 94.7 °F 69.8 °F 52% 30.03 in 10.0 mi WNW 5.8 mph - N/A   Clear
4:55 PM 91.4 °F 96.8 °F 69.8 °F 49% 30.02 in 10.0 mi Calm Calm - N/A   Clear
5:15 PM 89.6 °F 94.7 °F 69.8 °F 52% 30.02 in 10.0 mi West 3.5 mph - N/A   Clear
5:35 PM 91.4 °F 96.8 °F 69.8 °F 49% 30.02 in 10.0 mi SW 4.6 mph - N/A   Clear
5:55 PM 89.6 °F 96.2 °F 71.6 °F 55% 30.01 in 10.0 mi WSW 3.5 mph - N/A   Clear
6:15 PM 89.6 °F 96.2 °F 71.6 °F 55% 30.02 in 10.0 mi Calm Calm - N/A   Clear
6:35 PM 89.6 °F 98.2 °F 73.4 °F 59% 30.02 in 10.0 mi Calm Calm - N/A   Clear
6:55 PM 87.8 °F 95.6 °F 73.4 °F 62% 30.02 in 10.0 mi SSW 3.5 mph - N/A   Clear
7:15 PM 86.0 °F 93.4 °F 73.4 °F 66% 30.02 in 10.0 mi SW 4.6 mph - N/A   Clear
7:35 PM 84.2 °F 90.9 °F 73.4 °F 70% 30.03 in 10.0 mi WSW 5.8 mph - N/A   Clear
7:55 PM 82.4 °F 88.2 °F 73.4 °F 74% 30.03 in 10.0 mi SW 4.6 mph - N/A   Clear
8:15 PM 82.4 °F 88.2 °F 73.4 °F 74% 30.04 in 10.0 mi SW 4.6 mph - N/A   Clear
8:35 PM 82.4 °F 88.2 °F 73.4 °F 74% 30.04 in 10.0 mi SW 5.8 mph - N/A   Clear
8:55 PM 82.4 °F 88.2 °F 73.4 °F 74% 30.05 in 10.0 mi Calm Calm - N/A   Clear
9:15 PM 80.6 °F 85.4 °F 73.4 °F 79% 30.05 in 10.0 mi Calm Calm - N/A   Clear
9:35 PM 80.6 °F 86.2 °F 75.2 °F 84% 30.06 in 10.0 mi Calm Calm - N/A   Clear
9:55 PM 80.6 °F 86.2 °F 75.2 °F 84% 30.06 in 10.0 mi West 3.5 mph - N/A   Scattered Clouds
10:15 PM 80.6 °F 86.2 °F 75.2 °F 84% 30.05 in 10.0 mi Calm Calm - N/A   Scattered Clouds
10:35 PM 78.8 °F - 75.2 °F 89% 30.05 in 10.0 mi Calm Calm - N/A   Clear
10:55 PM 78.8 °F - 75.2 °F 89% 30.05 in 10.0 mi Calm Calm - N/A   Clear
11:15 PM 78.8 °F - 75.2 °F 89% 30.05 in 10.0 mi Calm Calm - N/A   Clear
11:35 PM 77.0 °F - 75.2 °F 94% 30.05 in 10.0 mi Calm Calm - N/A   Clear
11:55 PM 75.2 °F - 75.2 °F 100% 30.05 in 10.0 mi Calm Calm - N/A   Clear